T 1996 Aug. 30.86907 TT Marsden q 0.0046014 (2000.0) P Q Peri. 49.61542 +0.21442317 -0.91860869 Node 326.99719 -0.97311794 -0.17167025 e 1.0 Incl. 142.45296 +0.08404868 +0.35593173 >From 10 observations 1996 Aug. 30.